Theta_e
323 322 322 323 323 323 324 324 324 323 322 319 319 318 317 316 316 313 314 315 315 317 316 313 320 321 321 322 320 315 317 318 319 320 321 321 322 323 324 323 323 324 323 323 322 322 322
323 323 323 324 324 324 324 324 323 320 321 319 318 315 316 315 315 312 314 314 315 320 319 318 321 319 322 321 315 314 317 318 319 320 322 321 321 320 322 322 323 322 322 322 322 322 321
325 324 324 324 325 325 325 324 321 320 318 318 313 312 312 313 314 313 314 314 316 320 318 316 316 317 318 316 314 313 316 316 318 320 322 322 320 321 321 322 321 322 324 323 323 322 320
326 326 326 326 325 325 324 322 320 317 317 313 312 310 311 314 312 313 314 315 318 317 318 317 316 318 317 314 314 314 314 316 316 318 321 320 319 322 322 322 322 323 324 322 322 321 320
326 326 326 325 325 322 322 319 316 315 311 311 310 310 311 316 311 313 315 313 315 314 316 316 316 318 317 314 315 313 313 315 315 319 317 320 321 320 318 319 322 321 321 321 320 320 317
325 326 325 323 323 323 319 314 311 309 309 308 308 310 312 315 311 313 315 315 314 315 314 314 315 318 316 315 313 312 313 314 316 317 318 318 317 318 318 318 319 319 318 317 317 317 314
324 324 324 323 321 318 311 309 308 307 307 307 307 310 312 314 311 313 315 317 319 318 314 315 315 316 315 314 313 313 311 314 316 316 316 315 318 317 315 314 315 315 314 314 314 313 312
323 322 321 320 313 310 308 306 305 305 305 305 306 310 312 314 310 313 315 315 312 313 317 314 313 314 313 313 315 313 312 315 315 316 315 317 317 313 313 312 312 312 312 313 312 311 310
320 319 315 311 308 307 306 305 304 304 304 305 306 310 312 314 310 312 312 310 312 308 318 315 314 313 313 313 312 312 311 313 314 314 314 316 313 311 311 311 311 312 311 311 311 310 309
314 311 309 307 307 305 305 305 304 304 304 304 306 309 311 312 313 311 311 311 313 309 320 316 314 313 312 312 312 310 309 311 313 313 312 313 310 310 311 310 310 312 310 310 310 308 308
310 308 307 306 305 305 305 304 303 303 304 304 307 310 311 309 310 310 308 313 311 311 325 315 315 311 311 312 311 312 308 312 311 312 313 312 310 310 311 310 309 311 309 309 307 308 308
308 307 307 306 306 306 305 304 303 302 303 304 307 310 310 311 310 307 311 312 311 320 323 317 314 312 313 311 310 310 309 309 308 311 311 309 309 309 309 308 308 308 307 307 307 308 309
308 308 307 307 307 306 305 303 302 302 302 304 308 310 310 308 309 307 312 314 322 325 315 317 315 311 311 310 309 309 309 310 310 311 310 309 310 308 308 308 308 307 306 305 308 308 306
308 308 307 307 307 305 304 302 300 301 302 304 307 310 309 307 307 308 309 316 326 317 316 313 312 310 312 309 308 308 309 310 309 309 310 308 308 308 307 307 307 307 305 304 304 303 303
308 308 307 306 306 305 303 301 300 300 301 303 308 309 309 306 308 308 313 321 319 315 312 313 312 313 312 310 308 307 309 310 308 308 307 308 306 306 307 306 306 305 305 305 303 304 304
308 308 307 307 306 304 302 300 300 301 301 303 309 310 309 306 308 310 318 314 312 310 310 310 313 311 312 310 308 306 307 308 308 307 306 307 305 306 307 305 305 304 303 303 303 305 303
311 308 307 307 306 304 302 300 300 300 302 304 309 311 308 307 309 314 318 313 311 309 309 311 311 311 310 308 308 308 309 306 305 305 305 305 304 304 304 302 303 303 304 304 304 303 305
312 308 306 306 306 304 302 300 299 300 302 305 308 313 305 307 314 312 314 312 308 310 308 309 309 309 309 306 306 307 308 306 302 302 304 304 303 304 302 302 302 303 303 303 305 303 303
312 309 306 306 305 304 302 299 299 301 303 306 310 309 304 306 320 314 309 307 307 309 306 308 308 307 307 307 304 306 307 304 303 303 302 301 302 301 300 301 302 301 301 300 302 304 304
310 308 306 306 304 303 302 299 298 301 304 304 308 320 307 306 304 311 311 309 306 304 304 304 304 304 303 304 304 305 304 304 301 300 301 302 303 302 300 300 301 301 299 299 299 302 302
312 309 306 304 305 303 302 299 298 300 302 303 306 307 301 312 307 306 307 306 304 304 304 303 303 302 302 303 301 301 302 300 300 301 301 300 299 297 297 298 298 298 298 298 300 300 301
312 308 305 305 305 304 303 300 297 298 302 303 311 308 302 302 301 303 302 304 303 303 302 302 303 301 301 300 300 300 300 300 299 299 299 299 299 298 297 297 297 297 298 299 299 298 300
315 310 306 303 303 302 301 298 296 296 301 304 299 298 304 299 302 304 302 303 303 302 300 300 301 301 300 300 299 299 299 299 298 298 298 298 298 298 297 297 297 298 299 298 298 299 299
318 314 306 304 302 302 299 297 295 296 299 302 301 300 307 304 302 302 302 301 301 300 301 300 299 299 300 297 296 295 294 295 296 296 297 298 298 298 298 296 296 297 296 295 295 297 300
319 315 306 302 301 300 297 295 295 298 300 300 299 299 304 303 301 301 301 300 299 299 298 300 299 298 295 296 297 295 293 294 295 295 297 297 298 296 295 293 291 291 294 295 294 297 298
318 313 305 301 300 298 296 296 296 299 300 299 296 296 300 304 302 300 300 299 300 299 298 297 294 294 295 296 296 296 295 294 295 294 293 295 296 294 292 290 290 292 294 294 294 295 295
314 309 304 301 298 296 296 296 296 297 298 296 295 294 299 303 297 298 300 299 296 297 298 296 295 295 294 296 296 295 294 295 295 293 293 293 293 292 291 292 291 292 294 294 292 294 294
310 306 303 300 297 296 295 295 294 294 295 294 293 293 297 299 296 295 295 296 295 296 297 295 294 295 296 296 295 295 294 294 293 292 291 291 292 292 292 292 292 294 293 293 293 294 294
307 305 302 300 297 296 295 294 293 292 293 293 293 295 295 296 296 292 292 293 293 293 295 293 293 294 294 294 294 293 293 293 293 291 291 292 292 292 292 293 293 293 293 294 294 295 295
Wind_Speed
6 6 7 8 9 10 12 13 15 17 18 20 21 21 22 23 22 28 16 9 7 9 8 8 10 12 4 9 7 10 9 10 7 6 10 4 8 2 3 2 1 2 4 5 6 4 4
5 6 7 8 9 9 11 13 15 18 18 21 21 22 23 23 23 27 10 9 7 9 10 10 10 7 2 9 6 10 7 7 8 7 9 9 5 3 5 3 4 5 5 5 4 5 5
5 6 6 7 9 10 12 14 16 18 19 19 20 23 24 22 24 22 9 9 7 8 10 14 18 17 19 8 6 10 6 7 7 6 5 6 4 2 1 2 4 3 1 5 9 8 6
5 5 6 8 9 11 13 16 18 19 18 19 21 23 24 20 25 16 10 9 8 7 6 7 9 8 7 6 5 12 10 4 6 5 4 6 3 5 5 2 1 2 1 5 6 9 4
5 6 8 9 10 10 14 17 17 17 18 20 21 23 24 18 25 14 9 12 9 10 8 5 4 3 5 6 8 13 9 7 6 4 9 5 3 4 4 4 3 5 6 8 7 4 8
7 5 6 6 6 10 14 15 17 18 19 20 21 22 22 16 25 14 10 13 20 6 6 5 7 6 5 6 7 11 7 7 4 2 0 6 3 4 10 9 5 10 8 8 12 8 13
6 5 5 6 8 11 13 16 17 18 19 20 21 21 21 12 21 16 7 1 2 5 17 8 4 6 3 7 9 19 11 5 2 6 7 5 7 9 9 9 6 8 11 16 15 11 16
8 7 7 8 10 12 14 16 18 19 20 20 20 20 19 7 15 21 11 7 3 1 12 7 4 4 2 5 4 21 18 4 8 9 9 3 8 7 4 6 8 10 11 10 7 8 15
10 8 8 9 11 13 15 17 18 19 20 20 19 19 18 4 13 17 20 9 0 5 4 6 4 6 5 8 8 14 16 4 6 10 9 7 6 5 7 7 9 4 6 10 13 19 21
9 9 9 10 11 13 15 17 18 19 19 19 17 19 17 4 4 6 6 12 4 3 3 7 6 7 7 3 5 11 16 4 4 7 4 6 6 7 7 6 7 8 8 12 16 18 10
9 8 9 10 12 14 16 17 18 18 19 18 16 17 12 15 4 6 9 3 6 2 3 5 4 5 8 7 8 13 11 6 7 7 5 6 8 8 6 6 7 5 14 14 20 15 8
8 8 9 10 12 14 16 17 18 18 19 17 14 15 14 5 8 9 6 5 1 3 3 2 5 8 3 10 5 9 10 9 2 1 7 4 2 4 5 5 3 12 12 20 4 6 6
7 7 9 10 12 14 16 17 18 19 18 16 11 10 16 14 6 13 2 3 3 3 0 4 4 6 5 9 8 10 7 14 8 5 7 3 2 2 8 7 1 13 12 7 6 5 10
5 6 8 10 12 14 15 17 18 18 17 15 9 7 9 14 15 8 2 3 2 3 4 2 3 2 5 10 6 8 4 6 14 9 4 8 1 6 8 5 6 6 7 4 7 10 18
4 6 7 9 11 14 16 17 18 18 17 13 7 4 5 20 14 5 4 4 4 3 2 5 0 2 3 3 4 3 7 4 8 13 9 9 2 5 4 5 4 4 6 6 12 14 10
3 4 6 8 10 13 15 17 18 18 17 12 3 2 6 22 11 2 3 5 3 3 4 2 3 3 4 7 3 6 3 3 3 8 5 4 8 3 6 5 2 2 5 4 4 6 15
2 2 3 6 9 13 15 17 18 18 18 11 2 1 10 14 7 5 4 5 5 5 0 4 1 2 3 3 3 4 4 2 4 6 4 5 2 0 6 4 11 7 4 4 5 8 11
4 2 1 4 7 10 13 16 17 18 17 8 2 0 16 8 3 4 3 3 1 2 6 4 4 4 3 3 1 2 3 3 4 4 5 4 5 7 12 9 4 1 2 5 7 15 13
7 6 3 3 6 9 11 13 15 16 16 4 2 3 9 7 4 4 4 4 4 2 5 2 3 4 2 3 1 2 1 4 2 4 5 4 2 8 3 6 5 4 11 15 15 10 19
11 9 6 4 4 7 10 12 13 13 13 4 1 1 4 6 3 6 6 4 4 4 4 5 4 2 3 2 3 2 2 1 3 5 5 4 5 9 10 17 16 18 22 17 15 11 17
14 12 9 6 4 5 8 10 11 10 10 3 4 3 2 3 5 6 4 2 5 3 3 3 3 5 3 2 0 1 1 3 2 5 2 3 7 11 13 18 19 21 22 21 15 18 14
18 15 12 9 6 5 5 7 7 6 6 6 2 4 3 3 1 2 3 2 4 4 1 2 4 5 3 1 3 4 3 2 3 0 5 6 4 12 15 12 11 18 19 12 12 14 14
20 18 16 12 9 6 5 5 5 3 3 4 3 3 1 1 2 0 2 5 5 7 5 5 6 2 1 1 3 6 7 8 10 10 7 4 4 7 7 14 18 15 4 12 11 13 13
25 23 21 17 12 7 5 4 2 1 3 4 4 5 2 3 1 3 5 4 9 4 5 4 3 0 4 6 8 3 1 1 2 2 6 3 3 4 10 15 10 5 5 10 13 13 6
29 27 24 19 14 9 6 3 2 3 6 5 10 2 3 4 5 8 9 8 8 7 5 5 4 3 3 2 1 1 2 3 3 4 4 3 3 5 5 11 19 14 6 14 19 20 6
36 31 27 21 16 12 9 7 8 8 9 14 12 9 4 7 5 6 7 6 5 4 4 3 2 2 1 2 2 1 2 2 2 3 1 2 3 4 8 5 8 7 6 14 21 17 12
41 36 31 25 19 16 13 11 11 10 11 11 9 10 6 4 2 2 3 4 3 3 3 3 2 2 4 2 2 2 2 2 2 4 2 6 6 6 6 7 11 14 9 19 12 14 25
44 37 31 26 22 19 17 15 12 12 12 8 11 8 6 4 4 3 2 4 3 2 3 4 3 2 2 2 0 2 1 1 3 4 8 4 5 4 4 8 6 8 21 14 19 23 23
45 37 34 28 25 22 18 15 12 13 14 12 10 18 19 11 5 9 11 8 6 5 5 1 2 3 2 3 2 1 1 2 4 4 1 4 4 7 5 8 20 22 18 19 21 20 19
Wind_Direction
86 74 64 54 42 33 25 19 16 11 7 5 6 4 2 2 0 355 1 32 35 36 52 86 112 124 98 77 55 343 4 17 22 32 39 37 48 44 67 40 29 49 23 337 330 333 348
92 73 60 49 36 26 19 13 10 9 7 4 4 3 1 2 1 358 31 50 40 54 70 99 114 93 90 82 341 349 19 35 36 41 43 43 43 29 75 47 14 346 322 331 30 28 46
95 73 56 44 32 24 14 6 9 6 4 5 5 3 359 3 4 7 42 37 70 71 84 93 97 91 70 68 3 16 39 28 35 30 51 41 26 358 345 109 359 330 14 148 49 25 35
99 77 58 44 34 20 8 6 7 8 11 10 7 3 1 8 7 18 59 59 84 76 83 85 81 74 75 14 16 14 17 22 27 38 40 22 57 83 21 337 170 3 157 342 33 2 33
99 84 67 49 33 18 5 8 12 13 10 9 7 5 4 16 9 20 75 60 99 71 76 81 54 56 67 350 16 357 8 358 343 40 39 39 57 48 14 339 168 45 330 332 329 82 340
113 94 71 51 27 11 9 15 14 11 10 9 8 5 5 19 15 23 145 88 72 62 29 42 44 112 46 8 331 348 358 9 18 317 188 30 57 77 30 14 12 329 324 308 305 331 334
114 109 83 45 27 20 21 16 14 12 11 9 7 6 7 24 27 25 147 71 215 66 40 47 30 67 44 332 32 19 355 334 19 52 14 33 64 45 24 24 349 316 304 305 320 335 324
108 90 68 46 37 28 22 18 16 12 11 8 7 7 7 33 34 42 73 69 55 71 75 43 46 69 19 346 13 15 6 36 33 35 357 112 69 23 5 5 336 323 316 340 308 329 320
98 83 66 52 37 29 24 21 16 11 8 7 7 9 9 25 27 39 60 37 231 148 97 48 31 22 4 24 40 4 6 354 20 24 27 49 43 353 358 353 353 18 3 333 308 314 293
96 81 63 47 38 33 26 21 16 10 7 7 11 13 13 27 56 17 50 353 152 173 146 20 10 33 360 330 68 18 8 341 33 26 37 59 23 9 356 68 351 320 348 313 305 318 316
94 76 59 47 39 31 24 18 13 9 6 8 12 16 24 54 84 42 325 31 137 270 226 12 25 335 26 54 325 18 12 6 28 15 314 52 10 14 36 359 338 337 322 297 294 290 297
96 74 57 46 38 28 20 14 9 10 9 9 11 17 21 22 49 3 355 145 190 218 94 56 13 2 44 31 31 350 13 32 73 91 76 53 81 40 348 337 359 323 304 293 230 259 249
94 74 56 42 31 22 16 11 7 7 9 8 9 13 32 39 341 340 111 223 218 26 231 32 7 7 58 22 30 15 29 43 27 338 20 331 132 100 11 329 194 351 341 325 300 288 315
93 70 53 37 25 16 10 8 7 5 6 3 1 13 20 12 349 344 203 241 54 38 38 14 3 56 64 5 40 25 28 45 31 1 333 346 294 7 5 4 306 338 355 303 296 311 304
98 62 44 28 16 10 8 7 7 4 1 1 8 18 23 346 350 352 261 49 47 42 359 342 268 25 79 53 356 53 51 52 31 16 8 339 292 350 359 335 314 29 309 358 283 277 288
98 57 35 17 7 5 7 7 7 5 357 360 17 59 9 349 354 322 58 90 94 39 356 326 35 355 22 14 359 16 35 27 50 37 359 65 291 56 324 292 161 354 338 273 231 278 292
161 76 29 3 1 2 4 5 6 6 358 352 30 192 349 356 30 46 71 75 114 61 37 15 90 90 73 27 10 36 30 76 27 17 10 339 210 146 313 305 317 315 272 231 291 276 290
206 210 307 343 358 1 4 2 2 6 4 2 20 268 344 27 52 49 65 63 37 44 47 74 76 58 51 41 55 84 42 47 41 4 9 18 306 281 289 327 289 286 311 280 279 288 277
218 217 245 322 346 353 359 360 2 8 12 15 48 340 348 347 99 93 116 84 57 48 43 71 94 33 48 51 357 36 43 141 54 359 4 10 189 305 277 165 181 308 300 291 278 270 266
221 222 227 260 314 346 350 356 360 8 9 40 90 50 27 48 23 111 132 123 120 42 70 60 96 96 95 70 51 163 221 149 311 311 326 267 249 244 269 294 309 298 293 291 284 276 287
225 227 221 232 267 326 340 347 355 1 9 49 13 73 25 38 43 86 66 79 128 115 65 55 83 93 123 148 292 227 277 302 317 4 96 356 268 281 286 288 289 287 285 295 288 276 272
223 223 223 231 250 272 306 331 350 349 7 68 107 131 82 82 76 109 35 96 131 111 58 105 146 137 99 90 336 307 314 298 277 146 328 326 281 303 299 287 282 289 291 295 295 298 284
228 223 222 224 234 253 287 327 336 338 24 87 104 90 118 357 105 212 71 132 132 132 71 64 128 160 228 29 320 309 295 290 286 286 291 286 306 316 294 313 309 281 2 322 319 319 309
226 225 216 216 215 227 260 289 290 157 181 132 140 134 126 115 131 94 127 118 124 93 131 106 83 20 51 320 291 278 320 290 217 298 246 274 276 279 292 304 292 78 38 337 327 310 7
225 223 212 208 203 210 206 217 165 151 166 181 139 133 125 110 128 120 129 122 110 92 83 99 70 53 324 358 330 313 167 173 44 37 47 244 308 304 290 312 294 291 43 352 334 302 248
222 213 201 196 191 191 177 161 135 128 127 136 108 105 93 123 194 129 132 161 143 142 130 110 95 23 50 60 68 43 358 359 353 320 123 115 282 284 318 293 291 358 330 336 328 288 7
205 198 191 187 181 175 164 151 140 141 147 147 112 113 94 104 113 155 127 146 117 117 120 144 123 107 2 59 63 39 97 340 293 286 328 308 307 276 296 292 277 291 316 324 291 324 326
189 175 170 172 167 163 155 148 142 140 144 149 102 109 105 90 82 51 107 120 128 155 143 130 153 102 96 81 61 98 219 79 270 297 304 292 313 282 286 281 293 5 321 313 309 308 308
177 165 158 160 161 157 154 149 149 151 145 135 98 101 104 84 95 85 71 60 34 55 117 100 44 106 136 125 182 172 215 217 329 301 110 267 240 292 270 279 302 305 302 303 306 303 307